SCP
0 0 0 1 2 2 2 2 2 2 2 1 1 0 0 0 0 0 0 0 0 0
0 0 0 1 2 2 2 2 2 2 1 1 0 0 0 0 0 0 0 0 0 0
0 0 0 1 2 2 2 2 2 1 1 0 0 0 0 0 0 0 0 0 0 0
1 1 1 2 2 2 2 1 1 1 0 0 0 0 0 0 0 0 0 0 0 0
1 1 2 2 2 2 1 1 1 1 0 0 0 0 0 0 0 0 0 0 0 0
2 2 2 2 2 1 1 1 1 1 0 0 0 0 0 0 0 0 0 0 0 0
3 3 3 2 2 1 1 1 1 0 0 0 0 0 0 0 0 0 0 0 0 0
3 2 2 2 2 1 1 1 0 0 0 0 0 0 0 0 0 0 0 0 0 0
2 2 1 1 1 1 0 0 0 0 0 0 0 0 0 0 0 0 0 0 0 0
1 1 1 0 0 0 0 0 0 0 0 0 0 0 0 0 0 0 0 0 0 0
1 0 0 0 0 0 0 0 0 0 0 0 0 0 0 0 0 0 0 0 0 0
0 0 0 0 0 0 0 0 0 0 0 0 0 0 0 0 0 0 0 0 0 0
0 0 0 0 0 0 0 0 0 0 0 0 0 0 0 0 0 0 0 0 0 0
0 0 0 0 0 0 0 0 0 0 0 0 0 0 0 0 0 0 0 0 0 0
Wind_Speed_500mb
93 95 84 72 58 50 48 46 42 37 35 31 28 33 38 39 31 32 29 27 29 30
85 92 84 68 58 50 46 47 40 37 37 30 30 34 40 36 33 30 28 27 31 30
82 85 81 69 62 57 52 45 39 44 40 31 38 39 35 36 33 28 28 29 29 27
95 89 76 65 67 60 56 44 44 48 42 41 42 39 35 34 29 26 27 27 25 21
91 81 75 73 62 60 58 42 49 53 46 46 44 41 34 32 27 24 24 22 22 19
84 83 76 67 58 59 53 47 56 52 52 51 45 39 31 25 24 23 22 17 16 15
65 63 59 55 54 58 50 55 62 55 51 47 44 32 26 25 20 28 25 19 14 15
53 52 52 53 55 50 55 65 62 57 50 45 38 27 30 24 24 26 27 24 18 17
54 52 50 52 50 52 62 65 64 58 48 44 39 29 27 27 28 22 22 21 18 19
44 46 51 56 60 60 62 66 61 52 46 42 38 31 34 28 25 22 20 18 17 18
51 59 61 64 63 57 65 61 54 50 48 41 36 32 30 29 29 24 21 19 19 16
63 70 71 63 57 57 60 55 48 50 43 40 34 33 33 32 30 26 23 23 20 17
62 67 63 60 61 59 56 54 48 45 38 35 37 36 31 31 31 30 29 28 23 21
63 58 60 63 59 61 55 49 44 38 38 36 32 30 29 27 26 28 30 32 22 22
Wind_Direction_500mb
233 228 231 238 244 250 250 254 251 240 238 242 240 223 216 224 221 227 231 240 243 252
224 225 230 238 246 249 247 249 239 230 230 228 218 207 214 221 214 216 234 241 250 252
228 233 236 240 244 243 241 237 226 223 220 218 204 212 210 207 214 226 236 246 245 248
234 234 235 244 243 239 235 227 220 218 217 206 206 208 206 208 217 227 237 239 239 237
234 235 240 240 239 235 224 223 218 215 209 202 201 206 206 213 221 229 234 227 229 228
228 232 236 237 224 218 217 218 209 205 201 199 200 204 206 219 223 225 205 199 205 231
216 218 217 212 209 212 217 210 200 197 195 195 195 200 206 200 215 204 195 201 221 235
209 203 202 204 210 213 206 200 193 187 187 187 189 195 195 210 215 197 206 217 231 253
194 196 205 208 194 195 194 191 182 180 181 178 186 198 203 212 194 200 206 222 237 247
204 204 192 179 188 189 185 175 172 176 175 180 188 200 204 206 207 211 218 226 238 234
202 190 182 180 172 178 169 168 168 172 182 185 197 206 197 202 204 219 226 229 222 231
195 181 174 169 169 171 168 169 175 175 180 193 193 194 197 200 205 215 224 208 207 209
182 170 168 170 166 169 171 172 170 175 192 190 187 195 204 207 212 215 203 193 206 205
175 167 166 163 163 164 166 173 183 185 180 186 195 198 201 200 203 207 206 193 200 211
Wind_Speed_850mb
93 95 84 72 58 50 48 46 42 37 35 31 28 33 38 39 31 32 29 27 29 30
85 92 84 68 58 50 46 47 40 37 37 30 30 34 40 36 33 30 28 27 31 30
82 85 81 69 62 57 52 45 39 44 40 31 38 39 35 36 33 28 28 29 29 27
95 89 76 65 67 60 56 44 44 48 42 41 42 39 35 34 29 26 27 27 25 21
91 81 75 73 62 60 58 42 49 53 46 46 44 41 34 32 27 24 24 22 22 19
84 83 76 67 58 59 53 47 56 52 52 51 45 39 31 25 24 23 22 17 16 15
65 63 59 55 54 58 50 55 62 55 51 47 44 32 26 25 20 28 25 19 14 15
53 52 52 53 55 50 55 65 62 57 50 45 38 27 30 24 24 26 27 24 18 17
54 52 50 52 50 52 62 65 64 58 48 44 39 29 27 27 28 22 22 21 18 19
44 46 51 56 60 60 62 66 61 52 46 42 38 31 34 28 25 22 20 18 17 18
51 59 61 64 63 57 65 61 54 50 48 41 36 32 30 29 29 24 21 19 19 16
63 70 71 63 57 57 60 55 48 50 43 40 34 33 33 32 30 26 23 23 20 17
62 67 63 60 61 59 56 54 48 45 38 35 37 36 31 31 31 30 29 28 23 21
63 58 60 63 59 61 55 49 44 38 38 36 32 30 29 27 26 28 30 32 22 22
Wind_Direction_850mb
233 228 231 238 244 250 250 254 251 240 238 242 240 223 216 224 221 227 231 240 243 252
224 225 230 238 246 249 247 249 239 230 230 228 218 207 214 221 214 216 234 241 250 252
228 233 236 240 244 243 241 237 226 223 220 218 204 212 210 207 214 226 236 246 245 248
234 234 235 244 243 239 235 227 220 218 217 206 206 208 206 208 217 227 237 239 239 237
234 235 240 240 239 235 224 223 218 215 209 202 201 206 206 213 221 229 234 227 229 228
228 232 236 237 224 218 217 218 209 205 201 199 200 204 206 219 223 225 205 199 205 231
216 218 217 212 209 212 217 210 200 197 195 195 195 200 206 200 215 204 195 201 221 235
209 203 202 204 210 213 206 200 193 187 187 187 189 195 195 210 215 197 206 217 231 253
194 196 205 208 194 195 194 191 182 180 181 178 186 198 203 212 194 200 206 222 237 247
204 204 192 179 188 189 185 175 172 176 175 180 188 200 204 206 207 211 218 226 238 234
202 190 182 180 172 178 169 168 168 172 182 185 197 206 197 202 204 219 226 229 222 231
195 181 174 169 169 171 168 169 175 175 180 193 193 194 197 200 205 215 224 208 207 209
182 170 168 170 166 169 171 172 170 175 192 190 187 195 204 207 212 215 203 193 206 205
175 167 166 163 163 164 166 173 183 185 180 186 195 198 201 200 203 207 206 193 200 211